TimeEST,TemperatureF,Dew PointF,Humidity,Sea Level PressureIn,VisibilityMPH,Wind Direction,Wind SpeedMPH,Gust SpeedMPH,PrecipitationIn,Events,Conditions,WindDirDegrees,DateUTC
12:00 AM,3.2,-9.4,56,30.23,25.0,West,3.5,-,N/A,,Clear,280,2013-12-12 05:00:00
1:00 AM,1.4,-11.2,56,30.24,25.0,WNW,5.8,-,N/A,,Clear,300,2013-12-12 06:00:00
2:00 AM,-0.4,-13.0,55,30.27,25.0,West,3.5,-,N/A,,Clear,280,2013-12-12 07:00:00
3:00 AM,-0.4,-11.2,60,30.28,25.0,NW,3.5,-,N/A,,Clear,310,2013-12-12 08:00:00
4:00 AM,-4.0,-14.8,60,30.29,25.0,West,4.6,-,N/A,,Clear,270,2013-12-12 09:00:00
5:00 AM,-4.0,-13.0,65,30.29,25.0,WNW,3.5,-,N/A,,Clear,290,2013-12-12 10:00:00
6:00 AM,-5.8,-14.8,65,30.31,25.0,West,3.5,-,N/A,,Clear,260,2013-12-12 11:00:00
7:00 AM,-11.2,-18.4,70,30.33,25.0,West,2.3,-,N/A,,Clear,280,2013-12-12 12:00:00
8:00 AM,-11.2,-16.6,77,30.32,45.0,West,2.3,-,N/A,,Clear,260,2013-12-12 13:00:00
9:00 AM,-7.6,-14.8,71,30.32,45.0,Calm,Calm,-,N/A,,Partly Cloudy,0,2013-12-12 14:00:00
10:00 AM,-0.4,-11.2,60,30.31,45.0,SW,4.6,-,N/A,,Partly Cloudy,220,2013-12-12 15:00:00
11:00 AM,1.4,-9.4,61,30.28,35.0,West,2.3,-,N/A,,Partly Cloudy,260,2013-12-12 16:00:00
12:00 PM,5.0,-7.6,56,30.24,40.0,SW,6.9,-,N/A,,Mostly Cloudy,230,2013-12-12 17:00:00
1:00 PM,5.0,-7.6,56,30.20,45.0,WSW,5.8,-,N/A,,Mostly Cloudy,240,2013-12-12 18:00:00
2:00 PM,5.0,-7.6,56,30.17,35.0,WSW,4.6,-,N/A,,Overcast,250,2013-12-12 19:00:00
2:33 PM,5.0,-5.8,61,30.14,3.0,West,3.5,-,N/A,Snow,Light Snow Showers,270,2013-12-12 19:33:00
3:00 PM,5.0,-4.0,66,30.13,6.0,NW,3.5,-,N/A,Snow,Light Snow Showers,310,2013-12-12 20:00:00
4:00 PM,6.8,-2.2,67,30.10,40.0,North,3.5,-,N/A,,Overcast,360,2013-12-12 21:00:00
5:00 PM,6.8,-2.2,67,30.07,25.0,North,3.5,-,N/A,,Overcast,10,2013-12-12 22:00:00
6:00 PM,5.0,-2.2,72,30.05,25.0,ENE,2.3,-,N/A,,Overcast,70,2013-12-12 23:00:00
7:00 PM,5.0,-0.4,78,30.03,25.0,NE,2.3,-,N/A,,Overcast,40,2013-12-13 00:00:00
7:23 PM,5.0,-0.4,78,30.01,15.0,Calm,Calm,-,N/A,Snow,Light Snow,0,2013-12-13 00:23:00
8:00 PM,3.2,-0.4,85,30.00,20.0,Calm,Calm,-,N/A,Snow,Light Snow,0,2013-12-13 01:00:00
9:00 PM,3.2,-2.2,78,29.96,25.0,Calm,Calm,-,N/A,Snow,Light Snow,0,2013-12-13 02:00:00
10:00 PM,1.4,-2.2,85,29.94,25.0,West,2.3,-,N/A,Snow,Light Snow,270,2013-12-13 03:00:00
11:00 PM,5.0,1.4,85,29.90,20.0,SW,5.8,-,N/A,Snow,Light Snow,220,2013-12-13 04:00:00